When you browse on this site, cookies collect data to enhance your experience and personalize the content and advertising you see.
Visit our Privacy Policy to learn more. By continuing to use the site, you agree to this use of cookies and data.
EN

Hourly Weather Ganja

Today, 18 September, Friday

Time Temperature Precipitation Wind Pressure Humidity
00:00 +18°C° 0 mm 0 mps 728 mmHg 78%
01:00 +17°C° 0 mm 0 mps 728 mmHg 79%
02:00 +17°C° 0 mm 0 mps 727 mmHg 79%
03:00 +17°C° 0 mm 0 mps 727 mmHg 81%
04:00 +17°C° 0 mm 0 mps 727 mmHg 81%
05:00 +20°C° 0 mm 1 mps 726 mmHg 80%
06:00 +20°C° 0 mm 1 mps 726 mmHg 79%
07:00 +21°C° 0 mm 1 mps 726 mmHg 74%
08:00 +22°C° 0 mm 1 mps 725 mmHg 69%
09:00 +23°C° 0 mm 2 mps 725 mmHg 64%
10:00 +25°C° 0 mm 2 mps 725 mmHg 60%
11:00 +26°C° 0 mm 2 mps 724 mmHg 56%
12:00 +27°C° 0 mm 2 mps 724 mmHg 52%
13:00 +28°C° 0 mm 2 mps 724 mmHg 51%
14:00 +28°C° 0 mm 2 mps 723 mmHg 49%
15:00 +29°C° 0 mm 2 mps 722 mmHg 47%
16:00 +28°C° 0 mm 1 mps 723 mmHg 51%
17:00 +27°C° 0 mm 1 mps 723 mmHg 54%
18:00 +26°C° 0 mm 1 mps 723 mmHg 57%
19:00 +25°C° 0 mm 1 mps 723 mmHg 58%
20:00 +25°C° 0 mm 1 mps 723 mmHg 60%
21:00 +25°C° 0 mm 1 mps 723 mmHg 61%
22:00 +24°C° 0 mm 1 mps 723 mmHg 59%
23:00 +24°C° 0 mm 1 mps 723 mmHg 58%

Tomorrow, 19 September, Saturday

Time Temperature Precipitation Wind Pressure Humidity
00:00 +24°C° 0 mm 1 mps 723 mmHg 57%
01:00 +23°C° 0 mm 2 mps 722 mmHg 57%
02:00 +23°C° 0 mm 2 mps 722 mmHg 57%
03:00 +22°C° 0 mm 3 mps 722 mmHg 57%
04:00 +22°C° 0 mm 3 mps 722 mmHg 57%
05:00 +22°C° 0 mm 4 mps 722 mmHg 57%
06:00 +21°C° 0 mm 4 mps 722 mmHg 57%
07:00 +23°C° 0 mm 5 mps 722 mmHg 54%
08:00 +25°C° 0 mm 5 mps 722 mmHg 52%
09:00 +27°C° 0 mm 5 mps 722 mmHg 49%
10:00 +28°C° 0 mm 5 mps 722 mmHg 45%
11:00 +29°C° 0 mm 5 mps 722 mmHg 41%
12:00 +32°C° 0 mm 5 mps 722 mmHg 37%
13:00 +32°C° 0.1 mm 5 mps 722 mmHg 36%
14:00 +33°C° 0.1 mm 4 mps 721 mmHg 34%
15:00 +33°C° 0.1 mm 4 mps 721 mmHg 32%
16:00 +32°C° 0.1 mm 4 mps 722 mmHg 34%
17:00 +29°C° 0.1 mm 4 mps 722 mmHg 37%
18:00 +28°C° 0.1 mm 4 mps 722 mmHg 39%
19:00 +27°C° 0 mm 4 mps 723 mmHg 40%
20:00 +25°C° 0 mm 3 mps 723 mmHg 42%
21:00 +24°C° 0 mm 3 mps 724 mmHg 43%
22:00 +22°C° 0 mm 3 mps 724 mmHg 47%
23:00 +22°C° 0 mm 3 mps 725 mmHg 50%

Day after tomorrow, 20 September, Sunday

Time Temperature Precipitation Wind Pressure Humidity
00:00 +21°C° 0 mm 2 mps 725 mmHg 53%
01:00 +20°C° 0 mm 2 mps 725 mmHg 57%
02:00 +20°C° 0 mm 2 mps 725 mmHg 60%
03:00 +19°C° 0 mm 2 mps 725 mmHg 63%
04:00 +19°C° 0 mm 2 mps 726 mmHg 66%
05:00 +18°C° 0 mm 2 mps 726 mmHg 68%
06:00 +18°C° 0 mm 2 mps 727 mmHg 70%
07:00 +19°C° 0 mm 3 mps 727 mmHg 66%
08:00 +21°C° 0 mm 3 mps 727 mmHg 61%
09:00 +22°C° 0 mm 4 mps 727 mmHg 57%
10:00 +22°C° 0 mm 3 mps 726 mmHg 57%
11:00 +24°C° 0 mm 3 mps 726 mmHg 56%
12:00 +24°C° 0 mm 3 mps 726 mmHg 55%
13:00 +24°C° 0 mm 3 mps 725 mmHg 55%
14:00 +24°C° 0 mm 3 mps 725 mmHg 55%
15:00 +25°C° 0 mm 2 mps 724 mmHg 54%
16:00 +24°C° 0 mm 2 mps 725 mmHg 55%
17:00 +24°C° 0 mm 2 mps 725 mmHg 56%
18:00 +23°C° 0 mm 1 mps 725 mmHg 57%
19:00 +23°C° 0 mm 2 mps 725 mmHg 60%
20:00 +21°C° 0 mm 2 mps 726 mmHg 64%
21:00 +20°C° 0 mm 2 mps 726 mmHg 67%
22:00 +20°C° 0 mm 2 mps 727 mmHg 69%
23:00 +20°C° 0 mm 3 mps 727 mmHg 71%

21 September, Monday

Time Temperature Precipitation Wind Pressure Humidity
00:00 +20°C° 0 mm 3 mps 727 mmHg 73%
01:00 +20°C° 0 mm 3 mps 727 mmHg 74%
02:00 +19°C° 0 mm 3 mps 727 mmHg 76%
03:00 +19°C° 0 mm 3 mps 727 mmHg 78%
04:00 +19°C° 0 mm 3 mps 727 mmHg 79%
05:00 +19°C° 0 mm 3 mps 728 mmHg 80%
06:00 +19°C° 0 mm 3 mps 728 mmHg 82%
07:00 +19°C° 0 mm 4 mps 728 mmHg 80%
08:00 +19°C° 0 mm 4 mps 728 mmHg 79%
09:00 +20°C° 0 mm 5 mps 728 mmHg 78%
10:00 +20°C° 0 mm 5 mps 728 mmHg 76%
11:00 +20°C° 0 mm 5 mps 728 mmHg 73%
12:00 +21°C° 0 mm 6 mps 728 mmHg 71%
13:00 +21°C° 0 mm 6 mps 728 mmHg 69%
14:00 +21°C° 0 mm 5 mps 728 mmHg 68%
15:00 +21°C° 0 mm 5 mps 727 mmHg 66%
16:00 +21°C° 0 mm 4 mps 727 mmHg 70%
17:00 +20°C° 0 mm 4 mps 727 mmHg 73%
18:00 +19°C° 0 mm 3 mps 727 mmHg 76%
19:00 +19°C° 0 mm 3 mps 727 mmHg 78%
20:00 +19°C° 0 mm 2 mps 728 mmHg 80%
21:00 +18°C° 0 mm 2 mps 728 mmHg 82%
22:00 +18°C° 0.1 mm 2 mps 728 mmHg 83%
23:00 +19°C° 0.1 mm 1 mps 727 mmHg 84%

22 September, Tuesday

Time Temperature Precipitation Wind Pressure Humidity
00:00 +19°C° 0.1 mm 1 mps 727 mmHg 85%
01:00 +19°C° 0.1 mm 1 mps 727 mmHg 84%
02:00 +19°C° 0.1 mm 1 mps 727 mmHg 84%
03:00 +17°C° 0.1 mm 0 mps 726 mmHg 84%
04:00 +17°C° 0 mm 0 mps 726 mmHg 85%
05:00 +16°C° 0 mm 0 mps 726 mmHg 85%
06:00 +16°C° 0 mm 0 mps 726 mmHg 86%
07:00 +17°C° 0 mm 0 mps 726 mmHg 83%
08:00 +20°C° 0 mm 1 mps 726 mmHg 79%
09:00 +20°C° 0 mm 1 mps 726 mmHg 76%
10:00 +21°C° 0 mm 1 mps 726 mmHg 72%
11:00 +21°C° 0 mm 2 mps 726 mmHg 68%
12:00 +23°C° 0 mm 2 mps 725 mmHg 64%
13:00 +24°C° 0.2 mm 2 mps 725 mmHg 63%
14:00 +24°C° 0.2 mm 2 mps 725 mmHg 61%
15:00 +25°C° 0.2 mm 2 mps 724 mmHg 60%
16:00 +24°C° 0.1 mm 2 mps 725 mmHg 63%
17:00 +24°C° 0.1 mm 2 mps 725 mmHg 66%
18:00 +23°C° 0.1 mm 2 mps 725 mmHg 69%
19:00 +21°C° 0.3 mm 2 mps 725 mmHg 72%
20:00 +22°C° 0.3 mm 1 mps 726 mmHg 74%
21:00 +22°C° 0.3 mm 1 mps 726 mmHg 77%
22:00 +20°C° 0.3 mm 2 mps 726 mmHg 78%
23:00 +20°C° 0.3 mm 2 mps 727 mmHg 79%

23 September, Wednesday

Time Temperature Precipitation Wind Pressure Humidity
00:00 +20°C° 0.3 mm 3 mps 727 mmHg 81%
01:00 +20°C° 0.3 mm 3 mps 727 mmHg 81%
02:00 +20°C° 0.3 mm 3 mps 727 mmHg 81%
03:00 +20°C° 0.3 mm 2 mps 727 mmHg 82%
04:00 +19°C° 0 mm 2 mps 727 mmHg 82%
05:00 +19°C° 0 mm 3 mps 727 mmHg 82%
06:00 +19°C° 0 mm 3 mps 727 mmHg 82%
07:00 +20°C° 0 mm 3 mps 727 mmHg 77%
08:00 +21°C° 0 mm 4 mps 728 mmHg 73%
09:00 +22°C° 0 mm 5 mps 728 mmHg 69%
10:00 +22°C° 0 mm 5 mps 728 mmHg 66%
11:00 +23°C° 0 mm 5 mps 728 mmHg 63%
12:00 +23°C° 0 mm 5 mps 728 mmHg 61%
13:00 +23°C° 0 mm 5 mps 728 mmHg 60%
14:00 +23°C° 0 mm 5 mps 728 mmHg 59%
15:00 +22°C° 0 mm 5 mps 728 mmHg 58%
16:00 +22°C° 0 mm 4 mps 728 mmHg 59%
17:00 +21°C° 0 mm 4 mps 728 mmHg 59%
18:00 +21°C° 0 mm 3 mps 728 mmHg 60%
19:00 +20°C° 0 mm 3 mps 728 mmHg 62%
20:00 +20°C° 0 mm 2 mps 728 mmHg 63%
21:00 +20°C° 0 mm 2 mps 728 mmHg 65%
22:00 +19°C° 0 mm 2 mps 728 mmHg 66%
23:00 +19°C° 0 mm 2 mps 728 mmHg 67%
Show more